カタログに戻る

STARLINK-6334

運用中通信VLEO
NORAD 57238·PAYLOAD·🇺🇸 United States

打ち上げ Jul 7, 2023 から Vandenberg Space Force Base

Loading…

次のパス (今後24時間)

TLE

最新Source: CelesTrak SupGP

元期: Sep 15, 2026, 01:37 UTC

1 57238C 23094W   26258.06784722 -.00069915  00000+0 -25320-2 0  2585
2 57238  43.0049  30.6332 0001995 270.5904 316.7165 15.27616293    17

AllMySatでSTARLINK-6334をリアルタイム追跡

Download on the App Store